This demonstration page uses our WeatherBlox Daily Observations layout. Learn more.

Left ArrowRight Arrow

36.19886, -115.1175

Hourly Observations for March 1, 2019

Temp ( °F °C ) Dew Point ( °F °C ) Humidity (%) Winds ( mph kmh ) Pressure ( in mb ) Visibility ( mi km ) Precip ( " mm )
12:53 am 00:53 Clear 56 13.3 36 2.2 47 47 Calm 29.95 1014 10 16 0.00 0.00
1:53 am 01:53 Clear 54 12.2 38 3.3 55 55 WNW 6 9 29.95 1014 10 16 0.00 0.00
2:53 am 02:53 Clear 54 12.2 36 2.2 51 51 NW 7 11 29.93 1014 10 16 0.00 0.00
3:53 am 03:53 Clear 54 12.2 35 1.7 49 49 NNW 8 13 29.94 1014 10 16 0.00 0.00
4:53 am 04:53 Clear 53 11.7 36 2.2 52 52 NNW 8 13 29.94 1014 10 16 0.00 0.00
5:53 am 05:53 Clear 53 11.7 35 1.7 51 51 N 8 13 29.96 1015 10 16 0.00 0.00
6:53 am 06:53 Sunny 53 11.7 35 1.7 51 51 NW 8 13 29.98 1015 10 16 0.00 0.00
7:53 am 07:53 Sunny 55 12.8 36 2.2 49 49 NNW 7 11 30.00 1016 10 16 0.00 0.00
8:53 am 08:53 Sunny 59 15 36 2.2 42 42 Calm 30.01 1016 10 16 0.00 0.00
9:53 am 09:53 Sunny 61 16.1 35 1.7 38 38 SE 3 6 30.01 1016 10 16 0.00 0.00
10:53 am 10:53 Sunny 64 17.8 35 1.7 34 34 Calm 30.00 1016 10 16 0.00 0.00
11:53 am 11:53 Sunny 66 18.9 33 0.6 29 29 VRB 5 7 29.97 1015 10 16 0.00 0.00
12:53 pm 12:53 Sunny 68 20 33 0.6 27 27 E 7 11 29.93 1013 10 16 0.00 0.00
1:53 pm 13:53 Sunny 71 21.7 25 -3.9 18 18 W 15 24 29.89 1012 10 16 0.00 0.00
2:53 pm 14:53 Sunny 72 22.2 27 -2.8 19 19 WSW 14 22 29.87 1012 10 16 0.00 0.00
3:53 pm 15:53 Sunny 71 21.7 27 -2.8 19 19 WSW 13 20 29.87 1012 10 16 0.00 0.00
4:53 pm 16:53 Sunny 70 21.1 27 -2.8 20 20 SW 15 24 29.88 1012 10 16 0.00 0.00
5:53 pm 17:53 Mostly Cloudy 70 21.1 26 -3.3 19 19 SW 17 28 29.89 1012 10 16 0.00 0.00
6:53 pm 18:53 Cloudy 69 20.6 26 -3.3 20 20 SSW 5 7 29.89 1012 10 16 0.00 0.00
7:53 pm 19:53 Mostly Clear 68 20 27 -2.8 21 21 SW 7 11 29.87 1012 10 16 0.00 0.00
8:53 pm 20:53 Partly Cloudy 67 19.4 27 -2.8 22 22 S 10 17 29.88 1012 10 16 0.00 0.00
9:53 pm 21:53 Clear 64 17.8 32 0 30 30 SSW 8 13 29.87 1012 10 16 0.00 0.00
10:53 pm 22:53 Clear 62 16.7 35 1.7 37 37 SSW 8 13 29.86 1011 10 16 0.00 0.00
11:53 pm 23:53 Clear 61 16.1 37 2.8 41 41 SSW 10 17 29.85 1011 10 16 0.00 0.00

Powered by AerisWeather